C/2018 U1 ( Lemmon )

Japanese version
Home page
Updated on May 17, 2020

---------------------------------------------------------------------

* Profile

Discovery Date October 27, 2018
Magnitude 20.0 mag
Discoverer R. A. Kowalski (Mount Lemmon Survey)

* Pictures

* Orbital Elements

Epoch 2021 Nov. 2.0 TT = JDT 2459520.5
T 2021 Nov. 3.08008 TT                                  Rudenko
q   4.9928194            (2000.0)            P               Q
z  -0.0002756      Peri.  180.46588     -0.25317116     -0.30189605
 +/-0.0000025      Node    75.48059     -0.88449281     +0.45708934
e   1.0013761      Incl.  108.29877     -0.39188880     -0.83661706
From 501 observations 2018 Oct. 27-2020 Mar. 19, mean residual 0".5.

* Finding Charts

* Magnitudes Graph

        m1 = 4.5 + 5 log d + 10.0 log r

---------------------------------------------------------------------

The orbital elements are published on M.P.E.C. 2020-F67.
The charts are made with StellaNavigator Ver.10 (AstroArts).
The magnitudes graphs are made with Comet for Windows.

---------------------------------------------------------------------

Copyright(C) Seiichi Yoshida (comet@aerith.net). All rights reserved.